Year,Month,Day,Hour,Minute,Value (Times are PST for temperature in C)
2019,09,25,00,00,13.60
2019,09,25,00,01,13.60
2019,09,25,00,02,13.70
2019,09,25,00,03,13.70
2019,09,25,00,04,13.70
2019,09,25,00,05,13.70
2019,09,25,00,06,13.70
2019,09,25,00,07,13.70
2019,09,25,00,08,13.70
2019,09,25,00,09,13.70
2019,09,25,00,10,13.70
2019,09,25,00,11,13.70
2019,09,25,00,12,13.70
2019,09,25,00,13,13.60
2019,09,25,00,14,13.60
2019,09,25,00,15,13.60
2019,09,25,00,16,13.60
2019,09,25,00,17,13.60
2019,09,25,00,18,13.60
2019,09,25,00,19,13.60
2019,09,25,00,20,13.60
2019,09,25,00,21,13.60
2019,09,25,00,22,13.60
2019,09,25,00,23,13.60
2019,09,25,00,24,13.60
2019,09,25,00,25,13.60
2019,09,25,00,26,13.60
2019,09,25,00,27,13.60
2019,09,25,00,28,13.60
2019,09,25,00,29,13.60
2019,09,25,00,30,13.70
2019,09,25,00,31,13.70
2019,09,25,00,32,13.70
2019,09,25,00,33,13.70
2019,09,25,00,34,13.70
2019,09,25,00,35,13.70
2019,09,25,00,36,13.70
2019,09,25,00,37,13.60
2019,09,25,00,38,13.60
2019,09,25,00,39,13.60
2019,09,25,00,40,13.60
2019,09,25,00,41,13.60
2019,09,25,00,42,13.60
2019,09,25,00,43,13.60
2019,09,25,00,44,13.60
2019,09,25,00,45,13.60
2019,09,25,00,46,13.60
2019,09,25,00,47,13.60
2019,09,25,00,48,13.60
2019,09,25,00,49,13.60
2019,09,25,00,50,13.60
2019,09,25,00,51,13.50
2019,09,25,00,52,13.50
2019,09,25,00,53,13.50
2019,09,25,00,54,13.50
2019,09,25,00,55,13.50
2019,09,25,00,56,13.50
2019,09,25,00,57,13.50
2019,09,25,00,58,13.50
2019,09,25,00,59,13.50
2019,09,25,01,00,13.50
2019,09,25,01,01,13.50
2019,09,25,01,02,13.50
2019,09,25,01,03,13.50
2019,09,25,01,04,13.50
2019,09,25,01,05,13.50
2019,09,25,01,06,13.50
2019,09,25,01,07,13.50
2019,09,25,01,08,13.50
2019,09,25,01,09,13.50
2019,09,25,01,10,13.50
2019,09,25,01,11,13.40
2019,09,25,01,12,13.40
2019,09,25,01,13,13.40
2019,09,25,01,14,13.40
2019,09,25,01,15,13.40
2019,09,25,01,16,13.40
2019,09,25,01,17,13.40
2019,09,25,01,18,13.40
2019,09,25,01,19,13.40
2019,09,25,01,20,13.40
2019,09,25,01,21,13.40
2019,09,25,01,22,13.40
2019,09,25,01,23,13.40
2019,09,25,01,24,13.40
2019,09,25,01,25,13.40
2019,09,25,01,26,13.40
2019,09,25,01,27,13.40
2019,09,25,01,28,13.40
2019,09,25,01,29,13.40
2019,09,25,01,30,13.40
2019,09,25,01,31,13.40
2019,09,25,01,32,13.40
2019,09,25,01,33,13.30
2019,09,25,01,34,13.30
2019,09,25,01,35,13.30
2019,09,25,01,36,13.30
2019,09,25,01,37,13.30
2019,09,25,01,38,13.30
2019,09,25,01,39,13.30
2019,09,25,01,40,13.30
2019,09,25,01,41,13.30
2019,09,25,01,42,13.30
2019,09,25,01,43,13.30
2019,09,25,01,44,13.30
2019,09,25,01,45,13.30
2019,09,25,01,46,13.20
2019,09,25,01,47,13.20
2019,09,25,01,48,13.20
2019,09,25,01,49,13.20
2019,09,25,01,50,13.20
2019,09,25,01,51,13.10
2019,09,25,01,52,13.10
2019,09,25,01,53,13.00
2019,09,25,01,54,13.00
2019,09,25,01,55,12.90
2019,09,25,01,56,12.90
2019,09,25,01,57,12.90
2019,09,25,01,58,12.80
2019,09,25,01,59,12.80
2019,09,25,02,00,12.80
2019,09,25,02,01,12.80
2019,09,25,02,02,12.80
2019,09,25,02,03,12.80
2019,09,25,02,04,12.80
2019,09,25,02,05,12.80
2019,09,25,02,06,12.80
2019,09,25,02,07,12.80
2019,09,25,02,08,12.80
2019,09,25,02,09,12.80
2019,09,25,02,10,12.80
2019,09,25,02,11,12.80
2019,09,25,02,12,12.80
2019,09,25,02,13,12.80
2019,09,25,02,14,12.80
2019,09,25,02,15,12.80
2019,09,25,02,16,12.80
2019,09,25,02,17,12.90
2019,09,25,02,18,12.90
2019,09,25,02,19,12.80
2019,09,25,02,20,12.80
2019,09,25,02,21,12.80
2019,09,25,02,22,12.80
2019,09,25,02,23,12.80
2019,09,25,02,24,12.80
2019,09,25,02,25,12.80
2019,09,25,02,26,12.80
2019,09,25,02,27,12.80
2019,09,25,02,28,12.80
2019,09,25,02,29,12.80
2019,09,25,02,30,12.80
2019,09,25,02,31,12.80
2019,09,25,02,32,12.80
2019,09,25,02,33,12.80
2019,09,25,02,34,12.80
2019,09,25,02,35,12.80
2019,09,25,02,36,12.80
2019,09,25,02,37,12.80
2019,09,25,02,38,12.80
2019,09,25,02,39,12.80
2019,09,25,02,40,12.80
2019,09,25,02,41,12.80
2019,09,25,02,42,12.80
2019,09,25,02,43,12.80
2019,09,25,02,44,12.80
2019,09,25,02,45,12.80
2019,09,25,02,46,12.70
2019,09,25,02,47,12.70
2019,09,25,02,48,12.70
2019,09,25,02,49,12.70
2019,09,25,02,50,12.70
2019,09,25,02,51,12.60
2019,09,25,02,52,12.60
2019,09,25,02,53,12.60
2019,09,25,02,54,12.60
2019,09,25,02,55,12.60
2019,09,25,02,56,12.60
2019,09,25,02,57,12.60
2019,09,25,02,58,12.60
2019,09,25,02,59,12.60
2019,09,25,03,00,12.60
2019,09,25,03,01,12.50
2019,09,25,03,02,12.50
2019,09,25,03,03,12.50
2019,09,25,03,04,12.50
2019,09,25,03,05,12.40
2019,09,25,03,06,12.40
2019,09,25,03,07,12.40
2019,09,25,03,08,12.30
2019,09,25,03,09,12.30
2019,09,25,03,10,12.30
2019,09,25,03,11,12.30
2019,09,25,03,12,12.20
2019,09,25,03,13,12.20
2019,09,25,03,14,12.20
2019,09,25,03,15,12.10
2019,09,25,03,16,12.10
2019,09,25,03,17,12.00
2019,09,25,03,18,12.00
2019,09,25,03,19,11.90
2019,09,25,03,20,11.80
2019,09,25,03,21,11.80
2019,09,25,03,22,11.80
2019,09,25,03,23,11.70
2019,09,25,03,24,11.70
2019,09,25,03,25,11.70
2019,09,25,03,26,11.70
2019,09,25,03,27,11.70
2019,09,25,03,28,11.60
2019,09,25,03,29,11.60
2019,09,25,03,30,11.60
2019,09,25,03,31,11.50
2019,09,25,03,32,11.40
2019,09,25,03,33,11.40
2019,09,25,03,34,11.40
2019,09,25,03,35,11.40
2019,09,25,03,36,11.30
2019,09,25,03,37,11.30
2019,09,25,03,38,11.30
2019,09,25,03,39,11.30
2019,09,25,03,40,11.20
2019,09,25,03,41,11.20
2019,09,25,03,42,11.20
2019,09,25,03,43,11.20
2019,09,25,03,44,11.20
2019,09,25,03,45,11.20
2019,09,25,03,46,11.20
2019,09,25,03,47,11.10
2019,09,25,03,48,11.10
2019,09,25,03,49,11.10
2019,09,25,03,50,11.10
2019,09,25,03,51,11.10
2019,09,25,03,52,11.10
2019,09,25,03,53,11.10
2019,09,25,03,54,11.10
2019,09,25,03,55,11.10
2019,09,25,03,56,11.10
2019,09,25,03,57,11.10
2019,09,25,03,58,11.10
2019,09,25,03,59,11.10
2019,09,25,04,00,11.10
2019,09,25,04,01,11.10
2019,09,25,04,02,11.10
2019,09,25,04,03,11.10
2019,09,25,04,04,11.10
2019,09,25,04,05,11.10
2019,09,25,04,06,11.00
2019,09,25,04,07,10.90
2019,09,25,04,08,10.90
2019,09,25,04,09,10.90
2019,09,25,04,10,10.90
2019,09,25,04,11,10.90
2019,09,25,04,12,10.90
2019,09,25,04,13,10.90
2019,09,25,04,14,10.90
2019,09,25,04,15,10.90
2019,09,25,04,16,10.80
2019,09,25,04,17,10.80
2019,09,25,04,18,10.80
2019,09,25,04,19,10.80
2019,09,25,04,20,10.80
2019,09,25,04,21,10.70
2019,09,25,04,22,10.70
2019,09,25,04,23,10.70
2019,09,25,04,24,10.70
2019,09,25,04,25,10.70
2019,09,25,04,26,10.70
2019,09,25,04,27,10.70
2019,09,25,04,28,10.70
2019,09,25,04,29,10.70
2019,09,25,04,30,10.70
2019,09,25,04,31,10.70
2019,09,25,04,32,10.60
2019,09,25,04,33,10.60
2019,09,25,04,34,10.60
2019,09,25,04,35,10.60
2019,09,25,04,36,10.60
2019,09,25,04,37,10.60
2019,09,25,04,38,10.60
2019,09,25,04,39,10.60
2019,09,25,04,40,10.60
2019,09,25,04,41,10.60
2019,09,25,04,42,10.60
2019,09,25,04,43,10.60
2019,09,25,04,44,10.60
2019,09,25,04,45,10.60
2019,09,25,04,46,10.60
2019,09,25,04,47,10.60
2019,09,25,04,48,10.60
2019,09,25,04,49,10.60
2019,09,25,04,50,10.50
2019,09,25,04,51,10.40
2019,09,25,04,52,10.40
2019,09,25,04,53,10.40
2019,09,25,04,54,10.40
2019,09,25,04,55,10.40
2019,09,25,04,56,10.40
2019,09,25,04,57,10.40
2019,09,25,04,58,10.30
2019,09,25,04,59,10.30
2019,09,25,05,00,10.20
2019,09,25,05,01,10.20
2019,09,25,05,02,10.20
2019,09,25,05,03,10.20
2019,09,25,05,04,10.20
2019,09,25,05,05,10.10
2019,09,25,05,06,10.10
2019,09,25,05,07,10.10
2019,09,25,05,08,10.10
2019,09,25,05,09,10.10
2019,09,25,05,10,10.10
2019,09,25,05,11,10.10
2019,09,25,05,12,10.10
2019,09,25,05,13,10.10
2019,09,25,05,14,10.10
2019,09,25,05,15,10.10
2019,09,25,05,16,10.10
2019,09,25,05,17,10.10
2019,09,25,05,18,10.10
2019,09,25,05,19,10.10
2019,09,25,05,20,10.10
2019,09,25,05,21,10.10
2019,09,25,05,22,10.10
2019,09,25,05,23,10.10
2019,09,25,05,24,10.10
2019,09,25,05,25,10.10
2019,09,25,05,26,10.10
2019,09,25,05,27,10.10
2019,09,25,05,28,10.20
2019,09,25,05,29,10.20
2019,09,25,05,30,10.20
2019,09,25,05,31,10.20
2019,09,25,05,32,10.10
2019,09,25,05,33,10.10
2019,09,25,05,34,10.10
2019,09,25,05,35,10.10
2019,09,25,05,36,10.10
2019,09,25,05,37,10.10
2019,09,25,05,38,10.10
2019,09,25,05,39,10.10
2019,09,25,05,40,10.10
2019,09,25,05,41,10.10
2019,09,25,05,42,10.10
2019,09,25,05,43,10.10
2019,09,25,05,44,10.10
2019,09,25,05,45,10.10
2019,09,25,05,46,10.10
2019,09,25,05,47,10.00
2019,09,25,05,48,9.90
2019,09,25,05,49,9.90
2019,09,25,05,50,9.90
2019,09,25,05,51,9.90
2019,09,25,05,52,9.90
2019,09,25,05,53,9.80
2019,09,25,05,54,9.80
2019,09,25,05,55,9.70
2019,09,25,05,56,9.70
2019,09,25,05,57,9.70
2019,09,25,05,58,9.70
2019,09,25,05,59,9.60
2019,09,25,06,00,9.60
2019,09,25,06,01,9.60
2019,09,25,06,02,9.50
2019,09,25,06,03,9.50
2019,09,25,06,04,9.50
2019,09,25,06,05,9.40
2019,09,25,06,06,9.40
2019,09,25,06,07,9.40
2019,09,25,06,08,9.40
2019,09,25,06,09,9.30
2019,09,25,06,10,9.30
2019,09,25,06,11,9.30
2019,09,25,06,12,9.30
2019,09,25,06,13,9.30
2019,09,25,06,14,9.20
2019,09,25,06,15,9.20
2019,09,25,06,16,9.20
2019,09,25,06,17,9.20
2019,09,25,06,18,9.20
2019,09,25,06,19,9.20
2019,09,25,06,20,9.20
2019,09,25,06,21,9.20
2019,09,25,06,22,9.20
2019,09,25,06,23,9.20
2019,09,25,06,24,9.20
2019,09,25,06,25,9.20
2019,09,25,06,26,9.20
2019,09,25,06,27,9.20
2019,09,25,06,28,9.20
2019,09,25,06,29,9.20
2019,09,25,06,30,9.20
2019,09,25,06,31,9.20
2019,09,25,06,32,9.20
2019,09,25,06,33,9.20
2019,09,25,06,34,9.20
2019,09,25,06,35,9.20
2019,09,25,06,36,9.20
2019,09,25,06,37,9.20
2019,09,25,06,38,9.20
2019,09,25,06,39,9.20
2019,09,25,06,40,9.20
2019,09,25,06,41,9.20
2019,09,25,06,42,9.20
2019,09,25,06,43,9.10
2019,09,25,06,44,9.10
2019,09,25,06,45,9.10
2019,09,25,06,46,9.10
2019,09,25,06,47,9.10
2019,09,25,06,48,9.00
2019,09,25,06,49,9.00
2019,09,25,06,50,9.00
2019,09,25,06,51,9.00
2019,09,25,06,52,9.00
2019,09,25,06,53,9.00
2019,09,25,06,54,9.00
2019,09,25,06,55,9.00
2019,09,25,06,56,9.00
2019,09,25,06,57,9.00
2019,09,25,06,58,9.00
2019,09,25,06,59,9.00
2019,09,25,07,00,9.00
2019,09,25,07,01,9.00
2019,09,25,07,02,9.00
2019,09,25,07,03,9.00
2019,09,25,07,04,9.00
2019,09,25,07,05,9.00
2019,09,25,07,06,9.00
2019,09,25,07,07,9.10
2019,09,25,07,08,9.10
2019,09,25,07,09,9.10
2019,09,25,07,10,9.10
2019,09,25,07,11,9.10
2019,09,25,07,12,9.10
2019,09,25,07,13,9.10
2019,09,25,07,14,9.10
2019,09,25,07,15,9.10
2019,09,25,07,16,9.10
2019,09,25,07,17,9.10
2019,09,25,07,18,9.10
2019,09,25,07,19,9.10
2019,09,25,07,20,9.10
2019,09,25,07,21,9.00
2019,09,25,07,22,9.00
2019,09,25,07,23,9.00
2019,09,25,07,24,9.00
2019,09,25,07,25,9.00
2019,09,25,07,26,9.00
2019,09,25,07,27,9.00
2019,09,25,07,28,9.00
2019,09,25,07,29,8.90
2019,09,25,07,30,8.90
2019,09,25,07,31,8.90
2019,09,25,07,32,8.90
2019,09,25,07,33,8.90
2019,09,25,07,34,8.90
2019,09,25,07,35,8.90
2019,09,25,07,36,8.90
2019,09,25,07,37,9.00
2019,09,25,07,38,9.00
2019,09,25,07,39,9.00
2019,09,25,07,40,9.00
2019,09,25,07,41,9.00
2019,09,25,07,42,9.00
2019,09,25,07,43,9.00
2019,09,25,07,44,9.00
2019,09,25,07,45,9.00
2019,09,25,07,46,9.00
2019,09,25,07,47,9.00
2019,09,25,07,48,9.00
2019,09,25,07,49,9.10
2019,09,25,07,50,9.10
2019,09,25,07,51,9.10
2019,09,25,07,52,9.10
2019,09,25,07,53,9.10
2019,09,25,07,54,9.10
2019,09,25,07,55,9.10
2019,09,25,07,56,9.10
2019,09,25,07,57,9.20
2019,09,25,07,58,9.20
2019,09,25,07,59,9.20
2019,09,25,08,00,9.20
2019,09,25,08,01,9.20
2019,09,25,08,02,9.20
2019,09,25,08,03,9.30
2019,09,25,08,04,9.30
2019,09,25,08,05,9.30
2019,09,25,08,06,9.30
2019,09,25,08,07,9.30
2019,09,25,08,08,9.40
2019,09,25,08,09,9.40
2019,09,25,08,10,9.40
2019,09,25,08,11,9.50
2019,09,25,08,12,9.50
2019,09,25,08,13,9.50
2019,09,25,08,14,9.50
2019,09,25,08,15,9.50
2019,09,25,08,16,9.50
2019,09,25,08,17,9.60
2019,09,25,08,18,9.60
2019,09,25,08,19,9.60
2019,09,25,08,20,9.70
2019,09,25,08,21,9.70
2019,09,25,08,22,9.70
2019,09,25,08,23,9.70
2019,09,25,08,24,9.70
2019,09,25,08,25,9.80
2019,09,25,08,26,9.80
2019,09,25,08,27,9.80
2019,09,25,08,28,9.80
2019,09,25,08,29,9.90
2019,09,25,08,30,9.90
2019,09,25,08,31,9.90
2019,09,25,08,32,9.90
2019,09,25,08,33,9.90
2019,09,25,08,34,10.00
2019,09,25,08,35,10.10
2019,09,25,08,36,10.10
2019,09,25,08,37,10.10
2019,09,25,08,38,10.10
2019,09,25,08,39,10.20
2019,09,25,08,40,10.20
2019,09,25,08,41,10.20
2019,09,25,08,42,10.30
2019,09,25,08,43,10.30
2019,09,25,08,44,10.40
2019,09,25,08,45,10.40
2019,09,25,08,46,10.50
2019,09,25,08,47,10.60
2019,09,25,08,48,10.60
2019,09,25,08,49,10.60
2019,09,25,08,50,10.70
2019,09,25,08,51,10.70
2019,09,25,08,52,10.70
2019,09,25,08,53,10.80
2019,09,25,08,54,10.80
2019,09,25,08,55,10.80
2019,09,25,08,56,10.90
2019,09,25,08,57,10.90
2019,09,25,08,58,10.90
2019,09,25,08,59,11.00
2019,09,25,09,00,11.10
2019,09,25,09,01,11.10
2019,09,25,09,02,11.20
2019,09,25,09,03,11.30
2019,09,25,09,04,11.30
2019,09,25,09,05,11.40
2019,09,25,09,06,11.50
2019,09,25,09,07,11.60
2019,09,25,09,08,11.70
2019,09,25,09,09,11.80
2019,09,25,09,10,11.80
2019,09,25,09,11,11.80
2019,09,25,09,12,11.90
2019,09,25,09,13,12.00
2019,09,25,09,14,12.00
2019,09,25,09,15,12.10
2019,09,25,09,16,12.20
2019,09,25,09,17,12.30
2019,09,25,09,18,12.40
2019,09,25,09,19,12.40
2019,09,25,09,20,12.50
2019,09,25,09,21,12.60
2019,09,25,09,22,12.60
2019,09,25,09,23,12.70
2019,09,25,09,24,12.80
2019,09,25,09,25,12.80
2019,09,25,09,26,12.90
2019,09,25,09,27,12.90
2019,09,25,09,28,13.00
2019,09,25,09,29,13.00
2019,09,25,09,30,13.00
2019,09,25,09,31,13.00
2019,09,25,09,32,13.00
2019,09,25,09,33,13.00
2019,09,25,09,34,13.00
2019,09,25,09,35,13.00
2019,09,25,09,36,13.00
2019,09,25,09,37,13.00
2019,09,25,09,38,13.00
2019,09,25,09,39,13.00
2019,09,25,09,40,13.10
2019,09,25,09,41,13.10
2019,09,25,09,42,13.20
2019,09,25,09,43,13.30
2019,09,25,09,44,13.30
2019,09,25,09,45,13.40
2019,09,25,09,46,13.40
2019,09,25,09,47,13.50
2019,09,25,09,48,13.50
2019,09,25,09,49,13.60
2019,09,25,09,50,13.60
2019,09,25,09,51,13.70
2019,09,25,09,52,13.70
2019,09,25,09,53,13.70
2019,09,25,09,54,13.70
2019,09,25,09,55,13.70
2019,09,25,09,56,13.80
2019,09,25,09,57,14.00
2019,09,25,09,58,14.00
2019,09,25,09,59,14.00
2019,09,25,10,00,14.10
2019,09,25,10,01,14.20
2019,09,25,10,02,14.20
2019,09,25,10,03,14.30
2019,09,25,10,04,14.40
2019,09,25,10,05,14.40
2019,09,25,10,06,14.50
2019,09,25,10,07,14.50
2019,09,25,10,08,14.60
2019,09,25,10,09,14.60
2019,09,25,10,10,14.60
2019,09,25,10,11,14.60
2019,09,25,10,12,14.60
2019,09,25,10,13,14.70
2019,09,25,10,14,14.80
2019,09,25,10,15,14.90
2019,09,25,10,16,15.00
2019,09,25,10,17,15.00
2019,09,25,10,18,15.10
2019,09,25,10,19,15.10
2019,09,25,10,20,15.10
2019,09,25,10,21,15.10
2019,09,25,10,22,15.20
2019,09,25,10,23,15.20
2019,09,25,10,24,15.30
2019,09,25,10,25,15.30
2019,09,25,10,26,15.30
2019,09,25,10,27,15.30
2019,09,25,10,28,15.40
2019,09,25,10,29,15.50
2019,09,25,10,30,15.50
2019,09,25,10,31,15.50
2019,09,25,10,32,15.60
2019,09,25,10,33,15.70
2019,09,25,10,34,15.80
2019,09,25,10,35,15.80
2019,09,25,10,36,15.90
2019,09,25,10,37,16.00
2019,09,25,10,38,16.10
2019,09,25,10,39,16.10
2019,09,25,10,40,16.10
2019,09,25,10,41,16.10
2019,09,25,10,42,16.10
2019,09,25,10,43,16.00
2019,09,25,10,44,15.90
2019,09,25,10,45,15.90
2019,09,25,10,46,15.90
2019,09,25,10,47,15.90
2019,09,25,10,48,15.80
2019,09,25,10,49,15.80
2019,09,25,10,50,15.80
2019,09,25,10,51,15.80
2019,09,25,10,52,15.80
2019,09,25,10,53,15.80
2019,09,25,10,54,15.90
2019,09,25,10,55,15.80
2019,09,25,10,56,15.80
2019,09,25,10,57,15.80
2019,09,25,10,58,15.70
2019,09,25,10,59,15.60
2019,09,25,11,00,15.60
2019,09,25,11,01,15.60
2019,09,25,11,02,15.60
2019,09,25,11,03,15.60
2019,09,25,11,04,15.60
2019,09,25,11,05,15.60
2019,09,25,11,06,15.60
2019,09,25,11,07,15.60
2019,09,25,11,08,15.70
2019,09,25,11,09,15.70
2019,09,25,11,10,15.70
2019,09,25,11,11,15.70
2019,09,25,11,12,15.70
2019,09,25,11,13,15.60
2019,09,25,11,14,15.70
2019,09,25,11,15,15.60
2019,09,25,11,16,15.60
2019,09,25,11,17,15.70
2019,09,25,11,18,15.60
2019,09,25,11,19,15.60
2019,09,25,11,20,15.60
2019,09,25,11,21,15.70
2019,09,25,11,22,15.70
2019,09,25,11,23,15.60
2019,09,25,11,24,15.60
2019,09,25,11,25,15.60
2019,09,25,11,26,15.60
2019,09,25,11,27,15.60
2019,09,25,11,28,15.70
2019,09,25,11,29,15.70
2019,09,25,11,30,15.80
2019,09,25,11,31,15.80
2019,09,25,11,32,15.80
2019,09,25,11,33,15.80
2019,09,25,11,34,15.80
2019,09,25,11,35,15.80
2019,09,25,11,36,15.80
2019,09,25,11,37,15.80
2019,09,25,11,38,15.80
2019,09,25,11,39,15.90
2019,09,25,11,40,15.90
2019,09,25,11,41,15.80
2019,09,25,11,42,15.80
2019,09,25,11,43,15.80
2019,09,25,11,44,15.80
2019,09,25,11,45,15.80
2019,09,25,11,46,15.80
2019,09,25,11,47,15.80
2019,09,25,11,48,15.80
2019,09,25,11,49,15.80
2019,09,25,11,50,15.80
2019,09,25,11,51,15.80
2019,09,25,11,52,15.80
2019,09,25,11,53,15.80
2019,09,25,11,54,15.80
2019,09,25,11,55,15.90
2019,09,25,11,56,15.90
2019,09,25,11,57,15.90
2019,09,25,11,58,16.00
2019,09,25,11,59,16.10
2019,09,25,12,00,16.10
2019,09,25,12,01,16.10
2019,09,25,12,02,16.10
2019,09,25,12,03,16.10
2019,09,25,12,04,16.20
2019,09,25,12,05,16.30
2019,09,25,12,06,16.30
2019,09,25,12,07,16.40
2019,09,25,12,08,16.40
2019,09,25,12,09,16.40
2019,09,25,12,10,16.50
2019,09,25,12,11,16.60
2019,09,25,12,12,16.70
2019,09,25,12,13,16.70
2019,09,25,12,14,16.80
2019,09,25,12,15,16.90
2019,09,25,12,16,17.00
2019,09,25,12,17,17.00
2019,09,25,12,18,17.00
2019,09,25,12,19,17.00
2019,09,25,12,20,17.10
2019,09,25,12,21,17.20
2019,09,25,12,22,17.30
2019,09,25,12,23,17.30
2019,09,25,12,24,17.20
2019,09,25,12,25,17.20
2019,09,25,12,26,17.20
2019,09,25,12,27,17.20
2019,09,25,12,28,17.10
2019,09,25,12,29,17.10
2019,09,25,12,30,17.00
2019,09,25,12,31,17.00
2019,09,25,12,32,17.00
2019,09,25,12,33,17.00
2019,09,25,12,34,17.00
2019,09,25,12,35,17.00
2019,09,25,12,36,17.00
2019,09,25,12,37,17.00
2019,09,25,12,38,17.00
2019,09,25,12,39,16.90
2019,09,25,12,40,16.90
2019,09,25,12,41,16.90
2019,09,25,12,42,16.90
2019,09,25,12,43,16.80
2019,09,25,12,44,16.90
2019,09,25,12,45,16.90
2019,09,25,12,46,17.00
2019,09,25,12,47,17.10
2019,09,25,12,48,17.20
2019,09,25,12,49,17.20
2019,09,25,12,50,17.10
2019,09,25,12,51,17.10
2019,09,25,12,52,17.00
2019,09,25,12,53,16.90
2019,09,25,12,54,16.90
2019,09,25,12,55,16.70
2019,09,25,12,56,16.70
2019,09,25,12,57,16.70
2019,09,25,12,58,16.70
2019,09,25,12,59,16.90
2019,09,25,13,00,16.90
2019,09,25,13,01,16.80
2019,09,25,13,02,16.70
2019,09,25,13,03,16.70
2019,09,25,13,04,16.70
2019,09,25,13,05,16.70
2019,09,25,13,06,16.70
2019,09,25,13,07,16.70
2019,09,25,13,08,16.70
2019,09,25,13,09,16.70
2019,09,25,13,10,16.80
2019,09,25,13,11,16.90
2019,09,25,13,12,16.90
2019,09,25,13,13,17.00
2019,09,25,13,14,17.00
2019,09,25,13,15,17.00
2019,09,25,13,16,16.90
2019,09,25,13,17,16.80
2019,09,25,13,18,16.80
2019,09,25,13,19,16.70
2019,09,25,13,20,16.70
2019,09,25,13,21,16.80
2019,09,25,13,22,16.80
2019,09,25,13,23,16.80
2019,09,25,13,24,16.80
2019,09,25,13,25,16.90
2019,09,25,13,26,16.90
2019,09,25,13,27,16.90
2019,09,25,13,28,16.90
2019,09,25,13,29,16.90
2019,09,25,13,30,16.80
2019,09,25,13,31,16.70
2019,09,25,13,32,16.70
2019,09,25,13,33,16.50
2019,09,25,13,34,16.40
2019,09,25,13,35,16.20
2019,09,25,13,36,16.20
2019,09,25,13,37,16.10
2019,09,25,13,38,16.10
2019,09,25,13,39,16.10
2019,09,25,13,40,16.10
2019,09,25,13,41,16.10
2019,09,25,13,42,16.10
2019,09,25,13,43,16.10
2019,09,25,13,44,16.10
2019,09,25,13,45,16.20
2019,09,25,13,46,16.20
2019,09,25,13,47,16.20
2019,09,25,13,48,16.30
2019,09,25,13,49,16.30
2019,09,25,13,50,16.30
2019,09,25,13,51,16.20
2019,09,25,13,52,16.10
2019,09,25,13,53,16.20
2019,09,25,13,54,16.10
2019,09,25,13,55,16.10
2019,09,25,13,56,16.10
2019,09,25,13,57,16.10
2019,09,25,13,58,16.10
2019,09,25,13,59,16.10
2019,09,25,14,00,16.00
2019,09,25,14,01,16.00
2019,09,25,14,02,15.90
2019,09,25,14,03,15.90
2019,09,25,14,04,16.00
2019,09,25,14,05,16.10
2019,09,25,14,06,16.10
2019,09,25,14,07,16.20
2019,09,25,14,08,16.20
2019,09,25,14,09,16.20
2019,09,25,14,10,16.20
2019,09,25,14,11,16.30
2019,09,25,14,12,16.30
2019,09,25,14,13,16.20
2019,09,25,14,14,16.20
2019,09,25,14,15,16.10
2019,09,25,14,16,16.10
2019,09,25,14,17,16.10
2019,09,25,14,18,16.10
2019,09,25,14,19,16.10
2019,09,25,14,20,15.90
2019,09,25,14,21,15.90
2019,09,25,14,22,15.90
2019,09,25,14,23,15.90
2019,09,25,14,24,15.80
2019,09,25,14,25,15.80
2019,09,25,14,26,15.80
2019,09,25,14,27,15.80
2019,09,25,14,28,15.90
2019,09,25,14,29,15.90
2019,09,25,14,30,15.90
2019,09,25,14,31,15.90
2019,09,25,14,32,15.90
2019,09,25,14,33,15.80
2019,09,25,14,34,15.80
2019,09,25,14,35,15.80
2019,09,25,14,36,15.80
2019,09,25,14,37,15.80
2019,09,25,14,38,15.80
2019,09,25,14,39,15.90
2019,09,25,14,40,15.90
2019,09,25,14,41,15.90
2019,09,25,14,42,15.90
2019,09,25,14,43,16.00
2019,09,25,14,44,16.10
2019,09,25,14,45,16.10
2019,09,25,14,46,16.10
2019,09,25,14,47,16.10
2019,09,25,14,48,16.10
2019,09,25,14,49,16.10
2019,09,25,14,50,16.10
2019,09,25,14,51,16.10
2019,09,25,14,52,16.10
2019,09,25,14,53,16.10
2019,09,25,14,54,15.90
2019,09,25,14,55,15.70
2019,09,25,14,56,15.60
2019,09,25,14,57,15.50
2019,09,25,14,58,15.40
2019,09,25,14,59,15.30
2019,09,25,15,00,15.20
2019,09,25,15,01,15.10
2019,09,25,15,02,15.00
2019,09,25,15,03,15.00
2019,09,25,15,04,14.90
2019,09,25,15,05,14.90
2019,09,25,15,06,14.80
2019,09,25,15,07,14.80
2019,09,25,15,08,14.80
2019,09,25,15,09,14.80
2019,09,25,15,10,14.90
2019,09,25,15,11,14.90
2019,09,25,15,12,14.90
2019,09,25,15,13,14.90
2019,09,25,15,14,15.00
2019,09,25,15,15,15.00
2019,09,25,15,16,15.10
2019,09,25,15,17,15.20
2019,09,25,15,18,15.20
2019,09,25,15,19,15.30
2019,09,25,15,20,15.30
2019,09,25,15,21,15.30
2019,09,25,15,22,15.30
2019,09,25,15,23,15.30
2019,09,25,15,24,15.30
2019,09,25,15,25,15.30
2019,09,25,15,26,15.30
2019,09,25,15,27,15.30
2019,09,25,15,28,15.20
2019,09,25,15,29,15.20
2019,09,25,15,30,15.20
2019,09,25,15,31,15.20
2019,09,25,15,32,15.10
2019,09,25,15,33,15.00
2019,09,25,15,34,15.00
2019,09,25,15,35,15.00
2019,09,25,15,36,15.00
2019,09,25,15,37,14.90
2019,09,25,15,38,14.90
2019,09,25,15,39,14.90
2019,09,25,15,40,14.90
2019,09,25,15,41,14.80
2019,09,25,15,42,14.80
2019,09,25,15,43,14.80
2019,09,25,15,44,14.80
2019,09,25,15,45,14.90
2019,09,25,15,46,14.90
2019,09,25,15,47,14.90
2019,09,25,15,48,14.90
2019,09,25,15,49,14.90
2019,09,25,15,50,15.00
2019,09,25,15,51,15.00
2019,09,25,15,52,15.10
2019,09,25,15,53,15.10
2019,09,25,15,54,15.10
2019,09,25,15,55,15.20
2019,09,25,15,56,15.20
2019,09,25,15,57,15.10
2019,09,25,15,58,15.00
2019,09,25,15,59,15.00
2019,09,25,16,00,15.10
2019,09,25,16,01,15.10
2019,09,25,16,02,15.10
2019,09,25,16,03,15.10
2019,09,25,16,04,15.10
2019,09,25,16,05,15.00
2019,09,25,16,06,15.00
2019,09,25,16,07,15.00
2019,09,25,16,08,15.00
2019,09,25,16,09,15.00
2019,09,25,16,10,14.90
2019,09,25,16,11,15.00
2019,09,25,16,12,14.90
2019,09,25,16,13,14.90
2019,09,25,16,14,14.90
2019,09,25,16,15,14.80
2019,09,25,16,16,14.80
2019,09,25,16,17,14.80
2019,09,25,16,18,14.90
2019,09,25,16,19,14.90
2019,09,25,16,20,14.90
2019,09,25,16,21,14.90
2019,09,25,16,22,14.90
2019,09,25,16,23,14.80
2019,09,25,16,24,14.80
2019,09,25,16,25,14.80
2019,09,25,16,26,14.80
2019,09,25,16,27,14.80
2019,09,25,16,28,14.80
2019,09,25,16,29,14.70
2019,09,25,16,30,14.70
2019,09,25,16,31,14.70
2019,09,25,16,32,14.70
2019,09,25,16,33,14.70
2019,09,25,16,34,14.70
2019,09,25,16,35,14.70
2019,09,25,16,36,14.70
2019,09,25,16,37,14.70
2019,09,25,16,38,14.70
2019,09,25,16,39,14.70
2019,09,25,16,40,14.70
2019,09,25,16,41,14.70
2019,09,25,16,42,14.70
2019,09,25,16,43,14.80
2019,09,25,16,44,14.80
2019,09,25,16,45,14.80
2019,09,25,16,46,14.80
2019,09,25,16,47,14.80
2019,09,25,16,48,14.80
2019,09,25,16,49,14.80
2019,09,25,16,50,14.80
2019,09,25,16,51,14.80
2019,09,25,16,52,14.80
2019,09,25,16,53,14.80
2019,09,25,16,54,14.80
2019,09,25,16,55,14.80
2019,09,25,16,56,14.80
2019,09,25,16,57,14.90
2019,09,25,16,58,14.80
2019,09,25,16,59,14.80
2019,09,25,17,00,14.80
2019,09,25,17,01,14.70
2019,09,25,17,02,14.70
2019,09,25,17,03,14.70
2019,09,25,17,04,14.70
2019,09,25,17,05,14.70
2019,09,25,17,06,14.70
2019,09,25,17,07,14.70
2019,09,25,17,08,14.60
2019,09,25,17,09,14.60
2019,09,25,17,10,14.60
2019,09,25,17,11,14.60
2019,09,25,17,12,14.60
2019,09,25,17,13,14.50
2019,09,25,17,14,14.50
2019,09,25,17,15,14.50
2019,09,25,17,16,14.50
2019,09,25,17,17,14.50
2019,09,25,17,18,14.50
2019,09,25,17,19,14.50
2019,09,25,17,20,14.50
2019,09,25,17,21,14.50
2019,09,25,17,22,14.50
2019,09,25,17,23,14.50
2019,09,25,17,24,14.50
2019,09,25,17,25,14.50
2019,09,25,17,26,14.50